This is the latest recevied weather packets stored in our database for station/object MM9SQL. If no packets are shown the sender has not sent any weather packets the latest 10 day(s).
| Time | Temp. | Humidity | Pressure | Rain* | Wind** | Luminosity | Snow |
|---|---|---|---|---|---|---|---|
| 1778240107 | 13.33° C | 50% | 1013.6 hPa | 0 mm | - | - | - |
| 1778239507 | 13.89° C | 52% | 1013.6 hPa | 0 mm | - | - | - |
| 1778239208 | 13.33° C | 53% | 1013.5 hPa | 0 mm | - | - | - |
| 1778238304 | 12.78° C | 52% | 1013.4 hPa | 0 mm | - | - | - |
| 1778235908 | 12.78° C | 58% | 1013.2 hPa | 0 mm | - | - | - |
| 1778233803 | 11.67° C | 58% | 1013.1 hPa | 0 mm | - | - | - |
| 1778232603 | 11.11° C | 59% | 1012.8 hPa | 0 mm | - | - | - |
| 1778230203 | 11.11° C | 62% | 1012.5 hPa | 0 mm | - | - | - |
| 1778225704 | 10° C | 67% | 1011.7 hPa | 0 mm | - | - | - |
| 1778223302 | 9.44° C | 71% | 1011.1 hPa | 0 mm | - | - | - |
| 1778222706 | 9.44° C | 73% | 1011.1 hPa | 0 mm | - | - | - |
| 1778218801 | 8.89° C | 73% | 1010.5 hPa | 0 mm | - | - | - |
| 1778218502 | 8.89° C | 74% | 1010.3 hPa | 0 mm | - | - | - |
| 1778218202 | 8.89° C | 75% | 1010.2 hPa | 0 mm | - | - | - |
| 1778215518 | 8.89° C | 76% | 1010.1 hPa | 0 mm | - | - | - |
| 1778208308 | 10° C | 71% | 1009.4 hPa | 0 mm | - | - | - |
| 1778194509 | 10° C | 65% | 1009 hPa | 0 mm | - | - | - |
| 1778187302 | 10.56° C | 69% | 1009.2 hPa | 0 mm | - | - | - |
| 1778185502 | 11.11° C | 67% | 1008.9 hPa | 0 mm | - | - | - |
| 1778179202 | 13.33° C | 61% | 1008.4 hPa | 0 mm | - | - | - |
| 1778178003 | 13.33° C | 60% | 1008.3 hPa | 0 mm | - | - | - |
| 1778176807 | 13.89° C | 60% | 1008.1 hPa | 0 mm | - | - | - |
| 1778176504 | 13.33° C | 59% | 1008.1 hPa | 0 mm | - | - | - |
| 1778176203 | 13.89° C | 59% | 1008 hPa | 0 mm | - | - | - |
| 1778175903 | 13.89° C | 61% | 1008.1 hPa | 0 mm | - | - | - |
* Rain latest hour (hover to see other rain measurements)
** Current wind speed in m/s (hover to see current wind gust speed)